Change the Weather History Date:

Tuesday, December 10, 2013

  Actual Average (KMOT) Record (KMOT)
Temperature  
Mean Temperature 0 °F 17 °F  
Max Temperature 14 °F 25 °F 56 °F (1987)
Min Temperature -13 °F 9 °F -32 °F (1919)
Degree Days  
Heating Degree Days 64 48  
Month to date heating degree days 466  
Since 1 July heating degree days 2524  
Moisture  
Dew Point -5 °F    
Average Humidity 81    
Maximum Humidity 100    
Minimum Humidity 66    
Precipitation  
Precipitation 0.30 in 0.01 in 0.11 in (1956)
Month to date precipitation 0.12  
Year to date precipitation 16.93  
Sea Level Pressure  
Sea Level Pressure 30.00 in    
Wind  
Wind Speed 14 mph (WNW)    
Max Wind Speed 22 mph    
Max Gust Speed 33 mph    
Visibility 10 miles    
Events Snow    
T = Trace of Precipitation, MM = Missing Value Source: NWS Daily Summary

Daily Weather History Graph

Daily Weather History Graph

Search for Another Location

Airport or City:

Trip Planner

Search our weather history database for the weather conditions in past years. The results will help you decide how hot, cold, wet, or windy it might be!

Date:

Astronomy

Dec. 10, 2013 Rise Set
Actual Time 8:29 AM CST 4:55 PM CST
Civil Twilight 7:53 AM CST 5:31 PM CST
Nautical Twilight 7:13 AM CST 6:11 PM CST
Astronomical Twilight 6:35 AM CST 6:49 PM CST
Moon 1:22 PM CST (12/10) 1:23 AM CST (12/10)
Length of Visible Light 9h 38m
Length of Day
8h 25m
Waxing Gibbous, 62% of the Moon is Illuminated
Dec 10
Waxing Gibbous
Dec 17
Full
Dec 25
Last Quarter
Jan 1
New
Jan 7
First Quarter

Hourly Weather History & Observations

Time (CST) Temp. Windchill Dew Point Humidity Pressure Visibility Wind Dir Wind Speed Gust Speed Precip Events Conditions
12:15 AM -2.2 °F -22.9 °F -5.8 °F 85% 29.84 in 10.0 mi WNW 16.1 mph 21.9 mph N/A   Mostly Cloudy
12:35 AM -2.2 °F -20.7 °F -5.8 °F 85% 29.84 in 10.0 mi WNW 12.7 mph 23.0 mph N/A   Scattered Clouds
12:55 AM -2.2 °F -22.2 °F -5.8 °F 85% 29.84 in 10.0 mi WNW 15.0 mph 23.0 mph N/A   Partly Cloudy
1:15 AM -2.2 °F -21.5 °F -7.6 °F 78% 29.83 in 10.0 mi West 13.8 mph - N/A   Clear
1:35 AM -2.2 °F -19.9 °F -5.8 °F 85% 29.82 in 10.0 mi WNW 11.5 mph - N/A   Clear
1:55 AM -2.2 °F -18.9 °F -5.8 °F 85% 29.82 in 10.0 mi West 10.4 mph - N/A   Partly Cloudy
2:15 AM -0.4 °F -17.6 °F -4.0 °F 85% 29.82 in 10.0 mi WNW 11.5 mph - N/A   Mostly Cloudy
2:35 AM -0.4 °F -16.7 °F -4.0 °F 85% 29.82 in 10.0 mi West 10.4 mph - N/A   Mostly Cloudy
2:55 AM -0.4 °F -17.6 °F -4.0 °F 85% 29.82 in 10.0 mi West 11.5 mph - N/A   Mostly Cloudy
3:15 AM -2.2 °F -19.9 °F -4.0 °F 92% 29.82 in 10.0 mi West 11.5 mph - N/A   Mostly Cloudy
3:35 AM -2.2 °F -18.0 °F -5.8 °F 85% 29.80 in 10.0 mi West 9.2 mph - N/A Snow Light Snow
4:35 AM 3.2 °F -13.1 °F -0.4 °F 85% 29.81 in 10.0 mi West 11.5 mph - 0.01 in Snow Light Snow
4:55 AM 3.2 °F -11.3 °F -0.4 °F 85% 29.79 in 10.0 mi West 9.2 mph - 0.02 in Snow Light Snow
5:15 AM 5.0 °F -9.1 °F 1.4 °F 85% 29.78 in 10.0 mi WSW 9.2 mph - N/A   Overcast
5:35 AM 5.0 °F -10.0 °F 1.4 °F 85% 29.78 in 10.0 mi West 10.4 mph - N/A Snow Light Snow
5:55 AM 6.8 °F -10.0 °F 5.0 °F 92% 29.77 in 3.0 mi West 13.8 mph - 0.03 in Snow Light Snow
6:15 AM 6.8 °F -10.0 °F 5.0 °F 92% 29.76 in 5.0 mi West 13.8 mph - N/A Snow Light Snow
6:35 AM 6.8 °F -11.3 °F 6.8 °F 100% 29.77 in 10.0 mi West 16.1 mph - 0.01 in Snow Light Snow
6:55 AM 8.6 °F -7.0 °F 6.8 °F 92% 29.77 in 10.0 mi West 12.7 mph - 0.01 in   Overcast
7:15 AM 8.6 °F -6.3 °F 8.6 °F 100% 29.77 in 5.0 mi WNW 11.5 mph - N/A Snow Light Snow
7:35 AM 10.4 °F -4.1 °F 8.6 °F 92% 29.77 in 9.0 mi West 11.5 mph - 0.01 in Snow Light Snow
7:55 AM 10.4 °F -4.8 °F 10.4 °F 100% 29.78 in 10.0 mi WNW 12.7 mph 18.4 mph 0.01 in   Mostly Cloudy
8:15 AM 10.4 °F -5.4 °F 10.4 °F 100% 29.79 in 6.0 mi WNW 13.8 mph 19.6 mph 0.02 in Snow Light Snow
8:35 AM 10.4 °F -4.8 °F 10.4 °F 100% 29.81 in 10.0 mi WNW 12.7 mph - 0.14 in Snow Light Snow
8:55 AM 12.2 °F -1.8 °F 10.4 °F 92% 29.81 in 10.0 mi WNW 11.5 mph - 0.16 in Snow Light Snow
9:15 AM 14.0 °F -1.4 °F 12.2 °F 93% 29.82 in 10.0 mi NW 15.0 mph 21.9 mph 0.01 in Snow Light Snow
9:35 AM 12.2 °F -5.3 °F 8.6 °F 85% 29.84 in 5.0 mi NNW 18.4 mph 26.5 mph 0.06 in Snow Light Snow
9:55 AM 10.4 °F -7.7 °F 6.8 °F 85% 29.86 in 10.0 mi NNW 18.4 mph 26.5 mph 0.07 in Snow Light Snow
10:15 AM 10.4 °F -7.7 °F 5.0 °F 79% 29.87 in 10.0 mi NNW 18.4 mph 25.3 mph N/A Snow Light Snow
10:35 AM 8.6 °F -10.0 °F 5.0 °F 85% 29.89 in 9.0 mi NNW 18.4 mph 26.5 mph N/A Snow Light Snow
10:55 AM 8.6 °F -8.9 °F 5.0 °F 85% 29.91 in 10.0 mi NNW 16.1 mph 23.0 mph N/A   Mostly Cloudy
11:15 AM 6.8 °F -11.8 °F 1.4 °F 79% 29.92 in 10.0 mi NW 17.3 mph 23.0 mph N/A   Scattered Clouds
11:35 AM 6.8 °F -10.0 °F 1.4 °F 79% 29.94 in 10.0 mi NW 13.8 mph 24.2 mph N/A   Clear
11:55 AM 5.0 °F -14.7 °F -0.4 °F 78% 29.95 in 10.0 mi NW 18.4 mph 27.6 mph N/A   Clear
12:15 PM 5.0 °F -14.2 °F -0.4 °F 78% 29.96 in 10.0 mi NW 17.3 mph 26.5 mph N/A Snow Light Snow
12:35 PM 1.4 °F -18.8 °F -4.0 °F 78% 29.97 in 10.0 mi NW 17.3 mph 27.6 mph N/A   Clear
12:55 PM 1.4 °F -19.9 °F -4.0 °F 78% 29.98 in 10.0 mi NNW 19.6 mph 26.5 mph N/A   Clear
1:15 PM -0.4 °F -22.8 °F -7.6 °F 72% 29.99 in 10.0 mi NNW 20.7 mph 28.8 mph N/A   Clear
1:35 PM -0.4 °F -22.8 °F -7.6 °F 72% 29.99 in 10.0 mi NW 20.7 mph 31.1 mph N/A   Clear
1:55 PM -0.4 °F -23.3 °F -7.6 °F 72% 30.00 in 10.0 mi NW 21.9 mph 29.9 mph N/A   Clear
2:15 PM -0.4 °F -19.9 °F -5.8 °F 78% 30.02 in 10.0 mi NW 15.0 mph 27.6 mph N/A   Clear
2:35 PM -0.4 °F -22.8 °F -9.4 °F 66% 30.03 in 10.0 mi NNW 20.7 mph 33.4 mph N/A   Clear
2:55 PM -0.4 °F -21.7 °F -9.4 °F 66% 30.05 in 10.0 mi NW 18.4 mph 29.9 mph N/A   Partly Cloudy
3:15 PM -0.4 °F -21.7 °F -9.4 °F 66% 30.06 in 10.0 mi NW 18.4 mph 27.6 mph N/A   Partly Cloudy
3:35 PM -2.2 °F -25.7 °F -9.4 °F 71% 30.08 in 10.0 mi NNW 21.9 mph 32.2 mph N/A   Clear
3:55 PM -2.2 °F -25.7 °F -9.4 °F 71% 30.11 in 10.0 mi NW 21.9 mph 28.8 mph N/A   Clear
4:15 PM -2.2 °F -24.1 °F -11.2 °F 66% 30.12 in 10.0 mi NW 18.4 mph 29.9 mph N/A   Partly Cloudy
4:35 PM -4.0 °F -24.5 °F -11.2 °F 71% 30.13 in 10.0 mi NW 15.0 mph 23.0 mph N/A   Clear
4:55 PM -4.0 °F -25.2 °F - N/A% 30.15 in 10.0 mi NW 16.1 mph 26.5 mph N/A   Partly Cloudy
5:15 PM -5.8 °F -28.8 °F -13.0 °F 71% 30.17 in 10.0 mi NW 18.4 mph 25.3 mph N/A   Clear
5:35 PM -5.8 °F -28.2 °F -13.0 °F 71% 30.17 in 10.0 mi NW 17.3 mph 27.6 mph N/A   Clear
5:55 PM -7.6 °F -27.5 °F -13.0 °F 77% 30.19 in 10.0 mi NW 12.7 mph 21.9 mph N/A   Clear
6:15 PM -7.6 °F -27.5 °F -13.0 °F 77% 30.20 in 10.0 mi NW 12.7 mph 20.7 mph N/A   Clear
6:35 PM -7.6 °F -24.6 °F -14.8 °F 71% 30.21 in 10.0 mi NW 9.2 mph - N/A   Clear
6:55 PM -9.4 °F -26.8 °F -14.8 °F 77% 30.23 in 10.0 mi WNW 9.2 mph - N/A   Clear
7:15 PM -9.4 °F -28.9 °F -14.8 °F 77% 30.23 in 10.0 mi NW 11.5 mph 17.3 mph N/A   Clear
7:35 PM -9.4 °F -29.8 °F -14.8 °F 77% 30.25 in 10.0 mi NW 12.7 mph 18.4 mph N/A   Clear
7:55 PM -9.4 °F -29.8 °F -16.6 °F 71% 30.25 in 10.0 mi WNW 12.7 mph - N/A   Clear
8:15 PM -9.4 °F -31.4 °F -16.6 °F 71% 30.25 in 10.0 mi NW 15.0 mph - N/A   Clear
8:35 PM -11.2 °F -35.8 °F -16.6 °F 77% 30.25 in 10.0 mi NW 18.4 mph 23.0 mph N/A   Clear
8:55 PM -11.2 °F -35.2 °F -16.6 °F 77% 30.25 in 10.0 mi NW 17.3 mph 24.2 mph N/A   Clear
9:15 PM -11.2 °F -35.8 °F -16.6 °F 77% 30.25 in 10.0 mi NW 18.4 mph 24.2 mph N/A   Clear
9:35 PM -11.2 °F -33.7 °F -16.6 °F 77% 30.26 in 10.0 mi NW 15.0 mph 23.0 mph N/A   Clear
9:55 PM - - - N/A% 30.26 in 10.0 mi NW 12.7 mph - N/A   Clear
10:15 PM - - - N/A% 30.27 in 10.0 mi WNW 13.8 mph - N/A   Clear
10:35 PM -13.0 °F -35.2 °F -18.4 °F 77% 30.27 in 10.0 mi WNW 13.8 mph 17.3 mph N/A   Clear
10:55 PM -11.2 °F -33.7 °F -16.6 °F 77% 30.27 in 10.0 mi WNW 15.0 mph 19.6 mph N/A   Clear
11:15 PM - - - N/A% 30.26 in 10.0 mi WNW 15.0 mph - N/A   Clear
11:35 PM -13.0 °F -31.3 °F -18.4 °F 77% 30.28 in 10.0 mi West 9.2 mph - N/A   Clear
11:55 PM -13.0 °F -30.0 °F -18.4 °F 77% 30.30 in 10.0 mi West 8.1 mph - N/A   Clear